Location: Chmeli�t?
(49.8978°N, 15.0526°E)
Time: 07:03:38
(UTC+00:00)

Cosmos 2074 Rocket - Pass Details

Date: 02 October 2020
Orbit: 967 x 987 km, 82.9° (Epoch: 30 October)

Event Time Altitude Azimuth Distance (km) Brightness Sun altitude
Rises 19:33:28 0° 1° (N) 3,697 7.4 -28.4°
Reaches altitude 10° 19:38:27 10° 35° (NE) 2,738 6.3 -29.1°
Enters shadow 19:38:59 11° 40° (NE) 2,695 6.2 -29.2°
